EW3232 Weather Reports


Display with metric or nautical units.
time (UTC)temp
F
wind
direction
speed
MPH
gust
MPH
rain 1hr
in
rain 24hr
in
rain mn
in
humidity
%
barometer
mb
20260505204633 51 279 2.0 6.0 0.00 0.19 0.19 89 1012.0
20260505203044 52 247 2.0 7.0 0.00 0.19 0.19 89 1011.8
20260505201510 52 268 2.0 7.0 0.00 0.19 0.19 91 1011.6
20260505200134 51 244 0.0 3.0 0.01 0.19 0.19 91 1011.5
20260505194541 52 260 0.0 4.0 0.01 0.19 0.19 89 1011.0
20260505193035 53 274 3.0 5.0 0.01 0.19 0.19 88 1010.7
20260505191506 54 125 0.0 4.0 0.02 0.19 0.19 86 1010.6
20260505190118 54 233 3.0 8.0 0.01 0.18 0.18 85 1011.1
20260505184616 53 17 3.0 8.0 0.02 0.18 0.18 84 1010.2
20260505183015 53 300 2.0 3.0 0.04 0.18 0.18 87 1010.6
20260505181626 54 352 4.0 7.0 0.03 0.17 0.17 84 1010.7
20260505180024 54 23 0.0 5.0 0.03 0.17 0.17 82 1010.6
20260505174701 55 352 3.0 10.0 0.02 0.31 0.17 79 1010.2
20260505173159 57 318 6.0 16.0 0.02 0.31 0.16 72 1010.5
20260505171527 57 323 8.0 11.0 0.00 0.28 0.14 72 1010.1
20260505170042 57 347 7.0 11.0 0.00 0.28 0.14 71 1009.7
20260505164658 57 299 9.0 16.0 0.00 0.30 0.14 71 1009.9
20260505163016 56 291 6.0 19.0 0.00 0.30 0.14 73 1010.1
20260505161652 57 307 12.0 19.0 0.00 0.30 0.14 73 1010.2
20260505153030 59 359 1.0 9.0 0.02 0.30 0.14 76 1009.7
20260505150117 57 36 3.0 5.0 0.04 0.30 0.14 84 1009.7
20260505124649 59 133 3.0 6.0 0.01 0.28 0.10 84 1010.6
20260505123158 59 40 3.0 9.0 0.02 0.28 0.10 86 1010.6
20260505121553 58 31 3.0 9.0 0.05 0.28 0.10 87 1010.4
20260505114613 58 44 1.0 3.0 0.09 0.28 0.09 88 1010.9
20260505113008 58 62 0.0 4.0 0.09 0.28 0.09 86 1010.8
20260505111600 59 36 1.0 8.0 0.06 0.24 0.06 82 1010.7
20260505101522 62 56 8.0 11.0 0.00 0.23 0.00 74 1010.6
20260505100004 62 114 5.0 11.0 0.00 0.24 0.00 76 1010.7
20260505094611 61 58 7.0 13.0 0.00 0.24 0.00 75 1010.9
20260505093039 61 133 5.0 9.0 0.00 0.24 0.00 79 1011.0
20260505091655 62 120 6.0 11.0 0.00 0.24 0.00 75 1010.9
20260505090049 62 63 3.0 9.0 0.00 0.24 0.00 72 1010.8
20260505083120 62 80 4.0 6.0 0.00 0.24 0.00 69 1010.8
20260505081542 61 154 0.0 3.0 0.00 0.24 0.00 70 1010.9
20260505080138 60 145 0.0 4.0 0.00 0.24 0.00 73 1010.9
20260505073200 60 285 0.0 2.0 0.00 0.24 0.00 74 1011.0
20260505071644 57 244 0.0 4.0 0.00 0.24 0.00 79 1011.1
20260505070101 56 224 1.0 4.0 0.00 0.24 0.00 80 1010.9
20260505064514 54 237 2.0 7.0 0.00 0.24 0.00 82 1011.0
20260505063017 53 239 3.0 7.0 0.00 0.24 0.00 85 1010.9
20260505061518 51 165 0.0 3.0 0.00 0.24 0.00 94 1010.9
20260505060122 49 275 1.0 2.0 0.00 0.24 0.00 93 1010.9
20260505054539 49 264 3.0 4.0 0.00 0.24 0.00 94 1011.0
20260505051637 47 264 0.0 4.0 0.00 0.24 0.00 94 1010.9
20260505050126 47 277 1.0 2.0 0.00 0.24 0.00 93 1010.9
20260505041601 48 271 2.0 3.0 0.00 0.24 0.00 92 1010.9
20260505040015 49 273 1.0 2.0 0.00 0.24 0.00 92 1010.8
20260505034522 49 269 1.0 3.0 0.00 0.24 0.00 92 1010.9
20260505033016 50 254 2.0 3.0 0.00 0.24 0.00 92 1011.1
20260505030124 50 270 0.0 2.0 0.00 0.24 0.00 93 1011.3
20260505024525 49 352 2.0 3.0 0.00 0.24 0.00 93 1011.1
20260505021611 49 256 0.0 1.0 0.00 0.24 0.00 91 1011.0
20260505020020 50 283 2.0 3.0 0.00 0.24 0.00 90 1011.1
20260505013026 50 310 0.0 2.0 0.00 0.24 0.00 92 1011.3
20260505010055 49 259 1.0 3.0 0.00 0.24 0.00 93 1011.4
20260505004601 49 274 2.0 3.0 0.00 0.24 0.00 92 1011.8
20260505001632 50 283 2.0 6.0 0.00 0.24 0.00 90 1012.0
20260504234515 49 250 3.0 6.0 0.00 0.24 0.00 92 1012.0
20260504233003 50 263 1.0 4.0 0.00 0.24 0.00 91 1011.9
20260504231503 50 262 2.0 6.0 0.00 0.24 0.00 92 1012.0
20260504230022 50 268 2.0 3.0 0.00 0.24 0.00 92 1012.0
20260504224519 50 268 0.0 2.0 0.00 0.24 0.00 92 1012.0
20260504223044 50 258 2.0 6.0 0.00 0.24 0.00 93 1011.9
20260504221614 51 252 1.0 5.0 0.00 0.24 0.00 93 1012.1
20260504220004 51 260 0.0 4.0 0.00 0.24 0.24 94 1012.2
20260504214655 51 260 2.0 5.0 0.00 0.24 0.24 94 1012.1
20260504213124 51 262 3.0 5.0 0.00 0.24 0.24 94 1012.1
20260504211648 51 246 1.0 2.0 0.00 0.24 0.24 93 1012.1
20260504210050 52 246 0.0 2.0 0.00 0.24 0.24 93 1012.2